Stations météo

réclame
Mon MeteoGroup
UFS Deutsche Bucht, Allemagne (10007): Température de l'air & dewpoint: 14.11.2017 01:00:00 - 20.11.2017 01:00:00 (CET)UFS Deutsche Bucht, Allemagne (10007): Vitesse du vent & gusts: 14.11.2017 01:00:00 - 20.11.2017 01:00:00 (CET)UFS Deutsche Bucht, Allemagne (10007): Direction du vent: 14.11.2017 01:00:00 - 20.11.2017 01:00:00 (CET)UFS Deutsche Bucht, Allemagne (10007): reduced air pressure: 14.11.2017 01:00:00 - 20.11.2017 01:00:00 (CET)UFS Deutsche Bucht, Allemagne (10007): visibility: 14.11.2017 01:00:00 - 20.11.2017 01:00:00 (CET)UFS Deutsche Bucht, Allemagne (10007): Ensoleillement: 14.11.2017 01:00:00 - 20.11.2017 01:00:00 (CET)
Date & Time tt [°C] td [°C] ff [km/h] ff [knt] fx [km/h] fx [knt] dd ppp [hPa] vv [km] sd [min]
20.11.2017 01:00:00 - - - - - - - - - -
20.11.2017 00:00:00 9,0 0,4 50 27 76 41 NW 1014,5 10 0
19.11.2017 23:00:00 9,1 3,3 43 23 68 37 - 1014,3 10 0
19.11.2017 22:00:00 9,5 2,7 50 27 - - - 1014,2 10 0
19.11.2017 21:00:00 9,1 2,7 58 31 68 37 NNW 1013,8 10 0
19.11.2017 20:00:00 9,6 2,6 58 31 72 39 NNW 1012,9 10 0
19.11.2017 19:00:00 9,5 4,7 43 23 - - NNW 1012,2 10 0
19.11.2017 18:00:00 9,6 3,8 61 33 94 51 NW 1011,2 10 0
19.11.2017 17:00:00 9,0 4,9 54 29 90 49 NNW 1010,9 10 0
19.11.2017 16:00:00 8,8 4,7 65 35 - - NNW 1010,1 6 0
19.11.2017 15:00:00 9,1 4,6 61 33 83 45 NW 1009,3 9 30
19.11.2017 14:00:00 9,8 5,4 58 31 86 47 NW 1009,1 10 18
19.11.2017 13:00:00 9,4 4,8 65 35 - - NW 1008,9 7 30
19.11.2017 12:00:00 9,1 4,3 61 33 86 47 NW 1008,2 10 36
19.11.2017 11:00:00 9,6 4,6 68 37 83 45 NW 1008,0 10 6
19.11.2017 10:00:00 9,3 4,3 61 33 - - NW 1007,3 10 18
19.11.2017 09:00:00 9,7 5,0 61 33 94 51 NW 1006,7 10 0
19.11.2017 08:00:00 9,8 4,7 68 37 83 45 - 1005,9 10 0
19.11.2017 07:00:00 9,5 4,6 68 37 - - NW 1005,4 10 0
19.11.2017 06:00:00 9,7 3,9 65 35 97 53 NW 1005,3 10 0
19.11.2017 05:00:00 9,7 4,1 68 37 94 51 WNW 1005,4 10 0
19.11.2017 04:00:00 9,5 3,0 65 35 - - - 1005,6 10 0
19.11.2017 03:00:00 8,6 3,3 61 33 97 53 - 1006,3 8 0
19.11.2017 02:00:00 8,8 3,3 61 33 79 43 - 1006,7 9 0
19.11.2017 01:00:00 8,8 4,4 54 29 - - - 1007,0 10 0
19.11.2017 00:00:00 8,8 4,6 58 31 83 45 W 1007,4 10 0
18.11.2017 23:00:00 7,6 3,5 54 29 79 43 - 1008,0 5 0
18.11.2017 22:00:00 8,5 3,1 65 35 - - - 1008,6 10 0
18.11.2017 21:00:00 8,7 3,3 58 31 72 39 W 1008,7 10 0
18.11.2017 20:00:00 7,8 3,1 58 31 86 47 - 1009,1 10 0
18.11.2017 19:00:00 7,9 4,5 47 25 - - WNW 1009,6 2,3 0
18.11.2017 18:00:00 7,8 3,9 68 37 90 49 W 1009,6 9 0
18.11.2017 17:00:00 9,1 1,4 58 31 83 45 WNW 1009,3 10 0
18.11.2017 16:00:00 6,7 2,1 54 29 - - NW 1009,6 7 12
18.11.2017 15:00:00 8,9 2,2 58 31 72 39 NW 1009,4 10 18
18.11.2017 14:00:00 8,6 1,8 54 29 68 37 WNW 1009,4 2,6 24
18.11.2017 13:00:00 9,0 0,8 54 29 - - WNW 1009,2 2,0 30
18.11.2017 12:00:00 9,0 4,4 50 27 83 45 W 1009,0 10 0
18.11.2017 11:00:00 7,7 3,3 61 33 72 39 WNW 1009,8 4,6 0
18.11.2017 10:00:00 6,6 3,6 47 25 - - NW 1010,0 6 0
18.11.2017 09:00:00 7,6 4,5 76 41 101 54 WNW 1009,9 1,5 0
18.11.2017 08:00:00 10,5 4,2 61 33 79 43 - 1009,7 10 0
18.11.2017 07:00:00 8,8 5,7 61 33 - - W 1011,1 1,9 0
18.11.2017 06:00:00 9,3 5,7 47 25 72 39 WSW 1012,3 10 0
18.11.2017 05:00:00 9,4 5,1 61 33 76 41 W 1013,7 10 0
18.11.2017 04:00:00 9,1 4,4 65 35 - - - 1015,0 7 0
18.11.2017 03:00:00 10,1 5,0 50 27 76 41 - 1016,0 10 0
18.11.2017 02:00:00 10,2 3,8 47 25 61 33 - 1016,5 10 0
18.11.2017 01:00:00 10,3 3,2 43 23 - - - 1017,6 10 0
18.11.2017 00:00:00 10,0 3,6 43 23 61 33 W 1018,4 10 0
17.11.2017 23:00:00 10,3 1,7 43 23 54 29 - 1018,9 10 0
17.11.2017 22:00:00 9,8 4,9 32 18 - - - 1019,7 10 0
17.11.2017 21:00:00 9,9 3,7 43 23 47 25 W 1020,4 10 0
17.11.2017 20:00:00 9,1 4,3 36 19 58 31 W 1021,2 10 0
17.11.2017 19:00:00 9,4 3,5 36 19 - - W 1021,8 9 0
17.11.2017 18:00:00 10,2 2,5 43 23 61 33 W 1021,9 10 0
17.11.2017 17:00:00 10,0 2,8 40 21 47 25 W 1022,7 10 0
17.11.2017 16:00:00 10,2 3,0 36 19 - - W 1022,7 10 18
17.11.2017 15:00:00 10,0 2,7 36 19 47 25 - 1023,0 10 24
17.11.2017 14:00:00 10,4 4,2 32 18 47 25 W 1023,8 10 48
17.11.2017 13:00:00 8,9 3,4 36 19 - - WSW 1024,2 10 24
17.11.2017 12:00:00 10,0 4,0 32 18 - - W 1024,4 2,8 54
17.11.2017 11:00:00 10,0 0,5 32 18 - - W 1024,6 10 54
17.11.2017 10:00:00 10,0 2,0 29 16 - - W 1024,4 10 12
17.11.2017 09:00:00 9,6 4,0 29 16 50 27 WNW 1024,4 10 6
17.11.2017 08:00:00 9,9 2,4 22 12 - - - 1024,1 10 0
17.11.2017 07:00:00 9,9 2,4 32 18 - - WNW 1023,9 10 0
17.11.2017 06:00:00 9,8 1,1 29 16 - - WNW 1023,8 10 0
17.11.2017 05:00:00 9,9 1,3 29 16 50 27 ESE 1023,6 10 0
17.11.2017 04:00:00 9,9 2,0 29 16 - - NW 1023,1 10 0
17.11.2017 03:00:00 9,9 1,2 40 21 47 25 - 1022,8 10 0
17.11.2017 02:00:00 10,0 0,6 40 21 54 29 - 1022,3 10 0
17.11.2017 01:00:00 10,1 0,1 40 21 - - WNW 1021,8 10 0
17.11.2017 00:00:00 10,2 3,4 36 19 58 31 NW 1021,5 10 0
16.11.2017 23:00:00 9,1 4,5 50 27 58 31 - 1020,9 7 0
16.11.2017 22:00:00 10,6 4,8 43 23 - - - 1020,2 10 0
16.11.2017 21:00:00 10,4 7,2 40 21 58 31 NW 1019,2 10 0
16.11.2017 20:00:00 10,8 7,2 47 25 58 31 NW 1018,2 9 0
16.11.2017 19:00:00 11,2 9,9 40 21 - - SW 1017,4 4,4 0
16.11.2017 18:00:00 11,1 9,7 43 23 54 29 WSW 1017,6 6 0
16.11.2017 17:00:00 10,9 9,7 47 25 54 29 SW 1017,8 4,4 0
16.11.2017 16:00:00 10,7 9,4 43 23 - - SW 1018,2 7 0
16.11.2017 15:00:00 10,5 9,0 47 25 50 27 SW 1018,7 8 0
16.11.2017 14:00:00 10,4 9,0 40 21 50 27 SSW 1018,9 8 0
16.11.2017 13:00:00 10,2 9,0 40 21 - - SSW 1019,3 8 0
16.11.2017 12:00:00 10,3 9,2 36 19 47 25 SSW 1019,9 6 0
16.11.2017 11:00:00 10,1 9,3 40 21 47 25 SSW 1020,1 3,9 0
16.11.2017 10:00:00 10,2 9,3 36 19 - - SSW 1020,3 5 0
16.11.2017 09:00:00 10,0 9,2 36 19 - - SSW 1020,4 3,1 0
16.11.2017 08:00:00 10,0 9,3 32 18 - - SW 1020,4 4,1 0
16.11.2017 07:00:00 10,0 9,1 32 18 - - SSW 1020,4 9 0
16.11.2017 06:00:00 9,8 8,9 32 18 - - SSW 1020,7 4,7 0
16.11.2017 05:00:00 9,9 9,0 29 16 - - SSW 1021,5 6 0
16.11.2017 04:00:00 9,7 8,9 29 16 - - SSW 1022,1 8 0
16.11.2017 03:00:00 9,8 8,8 29 16 - - - 1022,4 7 0
16.11.2017 02:00:00 9,9 8,9 25 14 - - - 1022,6 5 0
16.11.2017 01:00:00 10,6 9,4 22 12 - - ESE 1023,1 5 0
16.11.2017 00:00:00 10,3 9,1 18 10 - - S 1023,5 10 0
15.11.2017 23:00:00 10,4 8,3 18 10 - - S 1023,8 10 0
15.11.2017 22:00:00 10,9 7,3 14 8 - - - 1024,0 10 0
15.11.2017 21:00:00 10,4 6,9 14 8 - - SSE 1024,2 10 0
15.11.2017 20:00:00 11,0 5,9 4 2 - - ESE 1024,3 10 0
15.11.2017 19:00:00 10,8 5,6 4 2 - - S 1024,6 10 0
15.11.2017 18:00:00 11,0 5,3 4 2 - - NNW 1024,4 10 0
15.11.2017 17:00:00 11,0 5,3 11 6 - - NNW 1024,3 10 0
15.11.2017 16:00:00 11,1 6,5 11 6 - - NW 1024,3 10 0
15.11.2017 15:00:00 11,2 5,4 14 8 - - NW 1024,0 10 18
15.11.2017 14:00:00 11,3 5,9 18 10 - - NW 1023,8 10 42
15.11.2017 13:00:00 11,3 6,3 22 12 - - NW 1023,7 10 30
15.11.2017 12:00:00 11,4 7,0 22 12 - - WNW 1023,4 10 54
15.11.2017 11:00:00 11,2 6,7 22 12 - - WNW 1023,1 10 54
15.11.2017 10:00:00 11,2 6,8 22 12 - - NW 1022,7 10 18
15.11.2017 09:00:00 11,3 7,8 25 14 - - NW 1022,1 10 0
15.11.2017 08:00:00 11,5 8,2 25 14 - - WNW 1021,4 10 0
15.11.2017 07:00:00 10,8 8,9 22 12 - - WNW 1021,0 10 0
15.11.2017 06:00:00 11,3 9,4 22 12 - - W 1020,6 10 0
15.11.2017 05:00:00 11,1 9,5 18 10 - - W 1020,5 10 0
15.11.2017 04:00:00 10,2 9,0 7 4 - - WSW 1020,6 10 0
15.11.2017 03:00:00 10,0 8,8 7 4 - - - 1020,3 10 0
15.11.2017 02:00:00 10,5 8,6 18 10 - - - 1020,7 10 0
15.11.2017 01:00:00 10,7 8,1 22 12 - - S 1020,9 10 0
15.11.2017 00:00:00 11,4 7,5 18 10 - - WSW 1020,8 10 0
14.11.2017 23:00:00 11,4 7,5 18 10 - - W 1020,7 10 0
14.11.2017 22:00:00 11,3 7,4 18 10 - - - 1020,6 10 0
14.11.2017 21:00:00 11,3 7,1 18 10 - - W 1020,4 10 0
14.11.2017 20:00:00 11,3 7,2 22 12 - - W 1020,0 10 0
14.11.2017 19:00:00 11,4 7,2 22 12 - - WNW 1019,7 10 0
14.11.2017 18:00:00 11,5 7,4 25 14 - - WNW 1019,1 10 0
14.11.2017 17:00:00 11,4 7,3 25 14 - - WNW 1018,7 10 6
14.11.2017 16:00:00 11,6 7,2 25 14 - - NW 1018,2 1,2 42
14.11.2017 15:00:00 11,7 8,1 32 18 47 25 NW 1017,4 10 6
14.11.2017 14:00:00 10,9 9,4 32 18 65 35 NW 1016,7 10 0
14.11.2017 13:00:00 11,5 10,0 43 23 - - W 1016,2 10 0
14.11.2017 12:00:00 10,6 9,6 50 27 68 37 WSW 1016,0 4,4 0
14.11.2017 11:00:00 10,0 8,5 50 27 72 39 WSW 1016,0 3,4 0
14.11.2017 10:00:00 10,0 6,1 58 31 - - WSW 1016,1 10 0
14.11.2017 09:00:00 10,2 4,0 54 29 72 39 WSW 1016,2 10 0
14.11.2017 08:00:00 9,8 2,8 54 29 65 35 WSW 1016,3 10 0
14.11.2017 07:00:00 10,0 3,9 50 27 - - WSW 1016,6 10 0
14.11.2017 06:00:00 9,6 2,0 43 23 58 31 W 1017,1 10 0
14.11.2017 05:00:00 8,7 4,8 40 21 50 27 WSW 1017,6 6 0
14.11.2017 04:00:00 9,6 2,5 32 18 - - WSW 1018,3 10 0
14.11.2017 03:00:00 9,6 3,4 29 16 - - - 1018,9 10 0
14.11.2017 02:00:00 9,4 2,4 25 14 - - - 1019,4 10 0
14.11.2017 01:00:00 9,2 1,5 22 12 - - WNW 1019,4 10 0

tt = Température de l'air
td = dewpoint
ff = Vitesse du vent
fx = gusts
dd = Direction du vent
ppp = reduced air pressure
vv = visibility
sd = Ensoleillement

stations d'obs. à proximité